OPS 4682 DEB, 38423

Orbit data source: Space-Track

OPS 4682 DEB, 38423 is space debris in LEO originally from a launch on Sat, 03 Apr 1965 UTC launched from the Air Force Western Test Range (AFWTR). Debris objects in space refer to the collection of defunct objects orbiting the Earth. Examples of debris include non-operational satellites, rocket bodies, and fragments generated from explosions, collisions, or faulty payload assembly.

Loading next visibility...
Identifier
38423, 1965-027EC
Orbit
LEO
Country
Flag of USUS
Related business
Manufacturer
Unknown
Mission
Spacecraft
Bus & Motor
Unknown
Mass
Unknown
Launch date (UTC)
1965-04-03 (61 years ago)
Launch vehicle
Unknown
Launch site
Air Force Western Test Range (AFWTR)
Object type
Payload
Rocket body
Debris
Shape & HBR
Unknown shape, 0.1 m
Radar Cross Section
Medium (>0.1 m² and <1 m²)

Expand to show TLE details & history
Last TLE update: 1 day ago

TLE from 1 day ago
0 OPS 4682 DEB
1 38423U 65027EC  26236.82955015  .00000607  00000-0  21273-2 0  9994
2 38423  90.2523  13.3777 0016920  59.5452 300.7337 12.95330311643003
Epoch: 2026-08-24T19:54Z
TLE epoch observation values (Epoch: 2026-08-24T19:54:33.132Z)
Latitude
0.00002°
Longitude
101.63402°
Altitude
1,276.707 km
Speed
7.221 km/s
True Right ascension
00h 53m 30s
True Declination
0° 00' 00"
Sunlit
Object was in full shadow at epoch
Visualization orbit readout
Latitude
Unknown
Longitude
Unknown
Altitude
Unknown
Speed
Unknown
Apparent Right ascension
Unknown
Apparent Declination
Unknown
Sunlit
N/A
Visualization observer readout
Local Sidereal Time
19:09:37
Azimuth
Unknown
Elevation
Unknown
Doppler factor
Unknown
Orbital elements
Apogee altitude
1,290.525 km
Perigee altitude
1,264.618 km
Semi-major axis
7,655.709 km
Eccentricity
0.00169
Inclination
90.2523°
RAAN
13.3777°
Arg. of periapsis
59.5452°
True anomaly
300.56686°
Mean anomaly
300.7337°
Eccentric anomaly
300.6503°
Mean motion
3.24015 °/min
Orbital period
111.11 mins
BSTAR
0.0021273
Loading maneuver chart data...
Computing Atmospheric mass density...
Loading historical data...
Loading historical data...
Loading historical data...
Loading historical data...
Loading historical data...
Loading historical data...
Loading historical data...

Documentation

Showing up to 5 results
|